Time,TemperatureF,DewpointF,PressureIn,WindDirection,WindDirectionDegrees,WindSpeedMPH,WindSpeedGustMPH,Humidity,HourlyPrecipIn,Conditions,Clouds,dailyrainin,SoftwareType,DateUTC
2013-05-23 00:02:00,55.0,51.0,-100.00,NW,310,9.0,14.0,88,0.04,,,-99.99,,2013-05-23 05:02:00,
2013-05-23 00:11:00,55.0,51.0,-100.00,NW,310,9.0,14.0,88,0.04,,,-99.99,,2013-05-23 05:11:00,
2013-05-23 00:22:00,55.0,51.0,-100.00,NW,310,9.0,14.0,88,0.04,,,-99.99,,2013-05-23 05:22:00,
2013-05-23 00:32:00,54.0,51.0,-100.00,NW,315,10.0,14.0,88,0.00,,,-99.99,,2013-05-23 05:32:00,
2013-05-23 00:42:00,54.0,51.0,-100.00,NW,315,10.0,14.0,88,0.00,,,-99.99,,2013-05-23 05:42:00,
2013-05-23 00:52:00,54.0,51.0,-100.00,NNW,330,13.0,19.0,88,0.00,,,-99.99,,2013-05-23 05:52:00,
2013-05-23 01:02:00,54.0,51.0,-100.00,NNW,330,13.0,19.0,88,0.00,,,-99.99,,2013-05-23 06:02:00,
2013-05-23 01:12:00,54.0,51.0,-100.00,NNW,330,12.0,20.0,88,0.00,,,-99.99,,2013-05-23 06:12:00,
2013-05-23 01:21:00,54.0,51.0,-100.00,NNW,330,13.0,20.0,88,0.00,,,-99.99,,2013-05-23 06:21:00,
2013-05-23 01:32:00,54.0,51.0,-100.00,NNW,330,13.0,20.0,88,0.00,,,-99.99,,2013-05-23 06:32:00,
2013-05-23 01:41:00,54.0,51.0,-100.00,NNW,330,13.0,20.0,88,0.00,,,-99.99,,2013-05-23 06:41:00,
2013-05-23 01:52:00,54.0,51.0,-100.00,NNW,330,12.0,21.0,88,0.00,,,-99.99,,2013-05-23 06:52:00,
2013-05-23 02:02:00,54.0,51.0,-100.00,NNW,330,12.0,21.0,88,0.00,,,-99.99,,2013-05-23 07:02:00,
2013-05-23 02:11:00,54.0,51.0,-100.00,NNW,335,12.0,19.0,88,0.06,,,-99.99,,2013-05-23 07:11:00,
2013-05-23 02:21:00,54.0,51.0,-100.00,NNW,330,12.0,21.0,88,0.14,,,-99.99,,2013-05-23 07:21:00,
2013-05-23 02:32:00,54.0,51.0,-100.00,NW,320,12.0,18.0,88,0.07,,,-99.99,,2013-05-23 07:32:00,
2013-05-23 02:42:00,54.0,51.0,-100.00,NW,320,12.0,18.0,88,0.07,,,-99.99,,2013-05-23 07:42:00,
2013-05-23 02:59:00,54.0,51.0,-100.00,NW,320,12.0,18.0,88,0.07,,,-99.99,,2013-05-23 07:59:00,
2013-05-23 03:11:00,54.0,51.0,-100.00,NNW,330,12.0,17.0,88,0.00,,,-99.99,,2013-05-23 08:11:00,
2013-05-23 03:21:00,54.0,51.0,-100.00,NW,325,9.0,18.0,88,0.00,,,-99.99,,2013-05-23 08:21:00,
2013-05-23 03:32:00,54.0,51.0,-100.00,NNW,330,11.0,15.0,88,0.00,,,-99.99,,2013-05-23 08:32:00,
2013-05-23 03:42:00,54.0,51.0,-100.00,NNW,330,11.0,15.0,88,0.00,,,-99.99,,2013-05-23 08:42:00,
2013-05-23 03:51:00,54.0,51.0,-100.00,NNW,335,11.0,15.0,88,0.00,,,-99.99,,2013-05-23 08:51:00,
2013-05-23 04:01:00,54.0,51.0,-100.00,NNW,335,11.0,15.0,88,0.00,,,-99.99,,2013-05-23 09:01:00,
2013-05-23 04:11:00,54.0,51.0,-100.00,NNW,335,7.0,19.0,88,0.00,,,-99.99,,2013-05-23 09:11:00,
2013-05-23 04:21:00,54.0,51.0,-100.00,North,355,9.0,14.0,88,0.00,,,-99.99,,2013-05-23 09:21:00,
2013-05-23 04:33:00,54.0,50.0,-100.00,North,350,9.0,15.0,87,0.00,,,-99.99,,2013-05-23 09:33:00,
2013-05-23 04:42:00,54.0,50.0,-100.00,North,350,9.0,15.0,87,0.00,,,-99.99,,2013-05-23 09:42:00,
2013-05-23 04:53:00,54.0,50.0,-100.00,North,0,9.0,14.0,87,0.00,,,-99.99,,2013-05-23 09:53:00,
2013-05-23 05:02:00,54.0,50.0,-100.00,North,0,9.0,14.0,87,0.00,,,-99.99,,2013-05-23 10:02:00,
2013-05-23 05:12:00,54.0,50.0,-100.00,North,0,9.0,14.0,87,0.00,,,-99.99,,2013-05-23 10:12:00,
2013-05-23 05:22:00,54.0,50.0,-100.00,North,5,11.0,16.0,86,0.00,,,-99.99,,2013-05-23 10:22:00,
2013-05-23 05:32:00,54.0,50.0,-100.00,North,5,12.0,18.0,86,0.00,,,-99.99,,2013-05-23 10:32:00,
2013-05-23 05:42:00,54.0,50.0,-100.00,North,5,12.0,18.0,86,0.00,,,-99.99,,2013-05-23 10:42:00,
2013-05-23 05:52:00,54.0,50.0,-100.00,North,0,11.0,15.0,86,0.00,,,-99.99,,2013-05-23 10:52:00,
2013-05-23 06:02:00,54.0,50.0,-100.00,North,0,11.0,15.0,86,0.00,,,-99.99,,2013-05-23 11:02:00,
2013-05-23 06:11:00,54.0,50.0,-100.00,North,0,11.0,15.0,86,0.00,,,-99.99,,2013-05-23 11:11:00,
2013-05-23 06:22:00,54.0,50.0,-100.00,North,0,11.0,16.0,86,0.00,,,-99.99,,2013-05-23 11:22:00,
2013-05-23 06:32:00,55.0,50.0,-100.00,North,0,11.0,17.0,84,0.00,,,-99.99,,2013-05-23 11:32:00,
2013-05-23 06:41:00,55.0,50.0,-100.00,North,0,11.0,17.0,84,0.00,,,-99.99,,2013-05-23 11:41:00,
2013-05-23 06:52:00,55.0,50.0,-100.00,North,0,11.0,16.0,84,0.00,,,-99.99,,2013-05-23 11:52:00,
2013-05-23 07:01:00,55.0,50.0,-100.00,North,0,11.0,16.0,84,0.00,,,-99.99,,2013-05-23 12:01:00,
2013-05-23 07:11:00,55.0,50.0,-100.00,North,0,11.0,17.0,84,0.00,,,-99.99,,2013-05-23 12:11:00,
2013-05-23 07:21:00,55.0,50.0,-100.00,North,355,11.0,16.0,83,0.00,,,-99.99,,2013-05-23 12:21:00,
2013-05-23 07:32:00,55.0,50.0,-100.00,North,0,12.0,19.0,82,0.00,,,-99.99,,2013-05-23 12:32:00,
2013-05-23 07:42:00,55.0,50.0,-100.00,North,0,12.0,19.0,82,0.00,,,-99.99,,2013-05-23 12:42:00,
2013-05-23 07:52:00,55.0,50.0,-100.00,North,0,12.0,18.0,82,0.00,,,-99.99,,2013-05-23 12:52:00,
2013-05-23 08:01:00,55.0,50.0,-100.00,North,0,12.0,18.0,82,0.00,,,-99.99,,2013-05-23 13:01:00,
2013-05-23 08:11:00,55.0,50.0,-100.00,North,0,12.0,18.0,82,0.00,,,-99.99,,2013-05-23 13:11:00,
2013-05-23 08:22:00,55.0,50.0,-100.00,North,0,12.0,18.0,82,0.00,,,-99.99,,2013-05-23 13:22:00,
2013-05-23 08:31:00,56.0,48.0,-100.00,North,5,14.0,22.0,76,0.00,,,-99.99,,2013-05-23 13:31:00,
2013-05-23 08:41:00,56.0,48.0,-100.00,North,5,14.0,22.0,76,0.00,,,-99.99,,2013-05-23 13:41:00,
2013-05-23 08:52:00,57.0,48.0,-100.00,NNE,15,17.0,21.0,72,0.00,,,-99.99,,2013-05-23 13:52:00,
2013-05-23 09:02:00,57.0,48.0,-100.00,NNE,15,17.0,21.0,72,0.00,,,-99.99,,2013-05-23 14:02:00,
2013-05-23 09:11:00,56.0,48.0,-100.00,North,5,11.0,18.0,72,0.00,,,-99.99,,2013-05-23 14:11:00,
2013-05-23 09:21:00,56.0,48.0,-100.00,North,5,11.0,18.0,72,0.00,,,-99.99,,2013-05-23 14:21:00,
2013-05-23 09:32:00,56.0,48.0,-100.00,North,5,11.0,18.0,72,0.00,,,-99.99,,2013-05-23 14:32:00,
2013-05-23 09:42:00,56.0,48.0,-100.00,North,5,11.0,18.0,72,0.00,,,-99.99,,2013-05-23 14:42:00,
2013-05-23 09:52:00,58.0,48.0,-100.00,NNE,15,11.0,19.0,68,0.00,,,-99.99,,2013-05-23 14:52:00,
2013-05-23 10:01:00,58.0,48.0,-100.00,NNE,15,11.0,19.0,68,0.00,,,-99.99,,2013-05-23 15:01:00,
2013-05-23 10:11:00,58.0,47.0,-100.00,North,10,13.0,17.0,67,0.00,,,-99.99,,2013-05-23 15:11:00,
2013-05-23 10:21:00,58.0,47.0,-100.00,North,10,13.0,17.0,67,0.00,,,-99.99,,2013-05-23 15:21:00,
2013-05-23 10:32:00,60.0,48.0,-100.00,NNE,20,14.0,18.0,64,0.00,,,-99.99,,2013-05-23 15:32:00,
2013-05-23 10:42:00,60.0,48.0,-100.00,NNE,20,14.0,18.0,64,0.00,,,-99.99,,2013-05-23 15:42:00,
2013-05-23 10:53:00,60.0,48.0,-100.00,NNE,20,14.0,18.0,64,0.00,,,-99.99,,2013-05-23 15:53:00,
2013-05-23 11:03:00,60.0,48.0,-100.00,NNE,20,14.0,18.0,64,0.00,,,-99.99,,2013-05-23 16:03:00,
2013-05-23 11:12:00,61.0,48.0,-100.00,North,5,13.0,22.0,60,0.00,,,-99.99,,2013-05-23 16:12:00,
2013-05-23 11:23:00,61.0,48.0,-100.00,North,5,13.0,22.0,60,0.00,,,-99.99,,2013-05-23 16:23:00,
2013-05-23 11:33:00,62.0,47.0,-100.00,North,0,12.0,19.0,57,0.00,,,-99.99,,2013-05-23 16:33:00,
2013-05-23 11:42:00,62.0,47.0,-100.00,North,0,12.0,19.0,57,0.00,,,-99.99,,2013-05-23 16:42:00,
2013-05-23 11:52:00,63.0,47.0,-100.00,North,5,13.0,21.0,56,0.00,,,-99.99,,2013-05-23 16:52:00,
2013-05-23 12:03:00,63.0,47.0,-100.00,North,5,13.0,21.0,56,0.00,,,-99.99,,2013-05-23 17:03:00,
2013-05-23 12:11:00,64.0,48.0,-100.00,NNE,15,13.0,20.0,55,0.00,,,-99.99,,2013-05-23 17:11:00,
2013-05-23 12:22:00,64.0,48.0,-100.00,NNE,15,12.0,18.0,54,0.00,,,-99.99,,2013-05-23 17:22:00,
2013-05-23 12:33:00,65.0,46.0,-100.00,North,5,14.0,22.0,50,0.00,,,-99.99,,2013-05-23 17:33:00,
2013-05-23 12:42:00,65.0,46.0,-100.00,North,5,14.0,22.0,50,0.00,,,-99.99,,2013-05-23 17:42:00,
2013-05-23 12:52:00,64.0,44.0,-100.00,NNE,20,15.0,19.0,47,0.00,,,-99.99,,2013-05-23 17:52:00,
2013-05-23 13:01:00,64.0,44.0,-100.00,NNE,20,15.0,19.0,47,0.00,,,-99.99,,2013-05-23 18:01:00,
2013-05-23 13:11:00,64.0,44.0,-100.00,NNE,20,15.0,19.0,47,0.00,,,-99.99,,2013-05-23 18:11:00,
2013-05-23 13:21:00,65.0,43.0,-100.00,NNE,15,16.0,20.0,44,0.00,,,-99.99,,2013-05-23 18:21:00,
2013-05-23 13:32:00,66.0,42.0,-100.00,NNE,20,15.0,22.0,41,0.00,,,-99.99,,2013-05-23 18:32:00,
2013-05-23 13:42:00,66.0,42.0,-100.00,NNE,20,15.0,22.0,41,0.00,,,-99.99,,2013-05-23 18:42:00,
2013-05-23 13:52:00,66.0,42.0,-100.00,NNE,15,13.0,20.0,41,0.00,,,-99.99,,2013-05-23 18:52:00,
2013-05-23 14:01:00,66.0,42.0,-100.00,NNE,15,13.0,20.0,41,0.00,,,-99.99,,2013-05-23 19:01:00,
2013-05-23 14:11:00,67.0,41.0,-100.00,North,0,16.0,21.0,38,0.00,,,-99.99,,2013-05-23 19:11:00,
2013-05-23 14:21:00,67.0,41.0,-100.00,North,0,12.0,20.0,37,0.00,,,-99.99,,2013-05-23 19:21:00,
2013-05-23 14:32:00,67.0,40.0,-100.00,North,0,12.0,20.0,36,0.00,,,-99.99,,2013-05-23 19:32:00,
2013-05-23 14:42:00,67.0,40.0,-100.00,North,0,12.0,20.0,36,0.00,,,-99.99,,2013-05-23 19:42:00,
2013-05-23 14:52:00,68.0,40.0,-100.00,North,10,9.0,19.0,36,0.00,,,-99.99,,2013-05-23 19:52:00,
2013-05-23 15:02:00,68.0,40.0,-100.00,North,10,9.0,19.0,36,0.00,,,-99.99,,2013-05-23 20:02:00,
2013-05-23 15:11:00,68.0,39.0,-100.00,NNE,15,12.0,17.0,34,0.00,,,-99.99,,2013-05-23 20:11:00,
2013-05-23 15:21:00,68.0,38.0,-100.00,NNE,25,9.0,14.0,34,0.00,,,-99.99,,2013-05-23 20:21:00,
2013-05-23 15:32:00,68.0,41.0,-100.00,NNE,30,8.0,17.0,37,0.00,,,-99.99,,2013-05-23 20:32:00,
2013-05-23 15:41:00,68.0,41.0,-100.00,NNE,30,8.0,17.0,37,0.00,,,-99.99,,2013-05-23 20:41:00,
2013-05-23 15:51:00,68.0,41.0,-100.00,North,0,9.0,17.0,36,0.00,,,-99.99,,2013-05-23 20:51:00,
2013-05-23 16:01:00,68.0,41.0,-100.00,North,0,9.0,17.0,36,0.00,,,-99.99,,2013-05-23 21:01:00,
2013-05-23 16:11:00,68.0,39.0,-100.00,North,0,9.0,18.0,35,0.00,,,-99.99,,2013-05-23 21:11:00,
2013-05-23 16:21:00,67.0,39.0,-100.00,NNE,15,12.0,24.0,35,0.00,,,-99.99,,2013-05-23 21:21:00,
2013-05-23 16:32:00,68.0,39.0,-100.00,North,0,10.0,17.0,34,0.00,,,-99.99,,2013-05-23 21:32:00,
2013-05-23 16:43:00,68.0,39.0,-100.00,North,0,10.0,17.0,34,0.00,,,-99.99,,2013-05-23 21:43:00,
2013-05-23 16:53:00,68.0,40.0,-100.00,North,0,11.0,16.0,34,0.00,,,-99.99,,2013-05-23 21:53:00,
2013-05-23 17:02:00,68.0,40.0,-100.00,North,0,11.0,16.0,34,0.00,,,-99.99,,2013-05-23 22:02:00,
2013-05-23 17:12:00,68.0,39.0,-100.00,North,0,11.0,16.0,34,0.00,,,-99.99,,2013-05-23 22:12:00,
2013-05-23 17:22:00,68.0,39.0,-100.00,North,0,11.0,16.0,34,0.00,,,-99.99,,2013-05-23 22:22:00,
2013-05-23 17:33:00,67.0,39.0,-100.00,North,10,14.0,20.0,34,0.00,,,-99.99,,2013-05-23 22:33:00,
2013-05-23 17:42:00,67.0,39.0,-100.00,North,10,14.0,20.0,34,0.00,,,-99.99,,2013-05-23 22:42:00,
2013-05-23 17:52:00,67.0,39.0,-100.00,NNE,25,9.0,18.0,34,0.00,,,-99.99,,2013-05-23 22:52:00,
2013-05-23 18:01:00,67.0,39.0,-100.00,NNE,25,9.0,18.0,34,0.00,,,-99.99,,2013-05-23 23:01:00,
2013-05-23 18:11:00,67.0,39.0,-100.00,NNE,25,9.0,18.0,34,0.00,,,-99.99,,2013-05-23 23:11:00,
2013-05-23 18:21:00,67.0,38.0,-100.00,North,10,9.0,16.0,34,0.00,,,-99.99,,2013-05-23 23:21:00,
2013-05-23 18:32:00,67.0,38.0,-100.00,North,10,11.0,14.0,34,0.00,,,-99.99,,2013-05-23 23:32:00,
2013-05-23 18:42:00,67.0,38.0,-100.00,North,10,11.0,14.0,34,0.00,,,-99.99,,2013-05-23 23:42:00,
2013-05-23 18:52:00,67.0,37.0,-100.00,North,10,10.0,15.0,34,0.00,,,-99.99,,2013-05-23 23:52:00,
2013-05-23 19:01:00,67.0,37.0,-100.00,North,10,10.0,15.0,34,0.00,,,-99.99,,2013-05-24 00:01:00,
2013-05-23 19:12:00,67.0,37.0,-100.00,NNE,25,9.0,11.0,34,0.00,,,-99.99,,2013-05-24 00:12:00,
2013-05-23 19:21:00,67.0,38.0,-100.00,North,10,7.0,12.0,34,0.00,,,-99.99,,2013-05-24 00:21:00,
2013-05-23 19:32:00,66.0,37.0,-100.00,NNE,30,7.0,13.0,34,0.00,,,-99.99,,2013-05-24 00:32:00,
2013-05-23 19:42:00,66.0,37.0,-100.00,NNE,30,7.0,13.0,34,0.00,,,-99.99,,2013-05-24 00:42:00,
2013-05-23 19:52:00,65.0,38.0,-100.00,NNE,25,9.0,12.0,36,0.00,,,-99.99,,2013-05-24 00:52:00,
2013-05-23 20:01:00,65.0,38.0,-100.00,NNE,25,9.0,12.0,36,0.00,,,-99.99,,2013-05-24 01:01:00,
2013-05-23 20:12:00,65.0,37.0,-100.00,NNE,25,8.0,12.0,36,0.00,,,-99.99,,2013-05-24 01:12:00,
2013-05-23 20:22:00,64.0,38.0,-100.00,NNE,20,7.0,10.0,37,0.00,,,-99.99,,2013-05-24 01:22:00,
2013-05-23 20:32:00,62.0,37.0,-100.00,NE,35,8.0,12.0,39,0.00,,,-99.99,,2013-05-24 01:32:00,
2013-05-23 20:41:00,62.0,37.0,-100.00,NE,35,8.0,12.0,39,0.00,,,-99.99,,2013-05-24 01:41:00,
2013-05-23 20:52:00,60.0,40.0,-100.00,NE,35,7.0,8.0,46,0.00,,,-99.99,,2013-05-24 01:52:00,
2013-05-23 21:01:00,60.0,40.0,-100.00,NE,35,7.0,8.0,46,0.00,,,-99.99,,2013-05-24 02:01:00,
2013-05-23 21:11:00,60.0,40.0,-100.00,NE,35,7.0,8.0,46,0.00,,,-99.99,,2013-05-24 02:11:00,
2013-05-23 21:21:00,59.0,41.0,-100.00,NNE,30,7.0,9.0,50,0.00,,,-99.99,,2013-05-24 02:21:00,
2013-05-23 21:32:00,59.0,41.0,-100.00,NNE,30,7.0,9.0,50,0.00,,,-99.99,,2013-05-24 02:32:00,
2013-05-23 21:42:00,59.0,41.0,-100.00,NNE,30,7.0,9.0,50,0.00,,,-99.99,,2013-05-24 02:42:00,
2013-05-23 21:52:00,58.0,42.0,-100.00,NE,35,7.0,9.0,54,0.00,,,-99.99,,2013-05-24 02:52:00,
2013-05-23 22:02:00,58.0,42.0,-100.00,NE,35,7.0,9.0,54,0.00,,,-99.99,,2013-05-24 03:02:00,
2013-05-23 22:11:00,56.0,43.0,-100.00,NE,40,7.0,8.0,59,0.00,,,-99.99,,2013-05-24 03:11:00,
2013-05-23 22:21:00,56.0,43.0,-100.00,NE,35,7.0,8.0,61,0.00,,,-99.99,,2013-05-24 03:21:00,
2013-05-23 22:33:00,55.0,43.0,-100.00,NNE,30,6.0,9.0,63,0.00,,,-99.99,,2013-05-24 03:33:00,
2013-05-23 22:42:00,55.0,43.0,-100.00,NNE,30,6.0,9.0,63,0.00,,,-99.99,,2013-05-24 03:42:00,
2013-05-23 22:53:00,56.0,43.0,-100.00,NNE,25,9.0,9.0,61,0.00,,,-99.99,,2013-05-24 03:53:00,
2013-05-23 23:03:00,56.0,43.0,-100.00,NNE,25,9.0,9.0,61,0.00,,,-99.99,,2013-05-24 04:03:00,
2013-05-23 23:12:00,56.0,42.0,-100.00,NNE,30,8.0,10.0,58,0.00,,,-99.99,,2013-05-24 04:12:00,
2013-05-23 23:22:00,55.0,42.0,-100.00,NNE,30,8.0,10.0,59,0.00,,,-99.99,,2013-05-24 04:22:00,
2013-05-23 23:33:00,54.0,42.0,-100.00,NNE,30,6.0,7.0,63,0.00,,,-99.99,,2013-05-24 04:33:00,
2013-05-23 23:42:00,54.0,42.0,-100.00,NNE,30,6.0,7.0,63,0.00,,,-99.99,,2013-05-24 04:42:00,
2013-05-23 23:52:00,53.0,43.0,-100.00,NE,55,6.0,6.0,67,0.00,,,-99.99,,2013-05-24 04:52:00,